******** Week 143 almanac for PRN-1 ******** ID: 1 Health: 0 Eccentricity: 0.01122951508 Time of Applicability(s): 319488 Orbital Inclination(rad): 0.986382004 Rate of Right Ascen(r/s): -8.046049436e-09 SQRT(A) (m 1/2): 5153.624023 Right Ascen at Week(rad): -1.160361342 Argument of Perigee(rad): 0.8840024937 Mean Anom(rad): 2.029206413 Af0(s): 0.0003677930664 Af1(s/s): -1.091394e-11 week: 143 ******** Week 143 almanac for PRN-2 ******** ID: 2 Health: 0 Eccentricity: 0.02065563202 Time of Applicability(s): 319488 Orbital Inclination(rad): 0.9647205175 Rate of Right Ascen(r/s): -8.171768958e-09 SQRT(A) (m 1/2): 5153.618164 Right Ascen at Week(rad): -1.248818029 Argument of Perigee(rad): -1.461711044 Mean Anom(rad): 2.197457815 Af0(s): -0.0005117448608 Af1(s/s): 0 week: 143 ******** Week 143 almanac for PRN-3 ******** ID: 3 Health: 0 Eccentricity: 0.003846645355 Time of Applicability(s): 319488 Orbital Inclination(rad): 0.9724323662 Rate of Right Ascen(r/s): -7.897471818e-09 SQRT(A) (m 1/2): 5153.660645 Right Ascen at Week(rad): -0.124896596 Argument of Perigee(rad): 0.984242296 Mean Anom(rad): 0.8572660625 Af0(s): -5.275720215e-05 Af1(s/s): -1.455192e-11 week: 143 ******** Week 143 almanac for PRN-4 ******** ID: 4 Health: 0 Eccentricity: 0.001637935638 Time of Applicability(s): 319488 Orbital Inclination(rad): 0.9608855655 Rate of Right Ascen(r/s): -7.691748963e-09 SQRT(A) (m 1/2): 5153.618164 Right Ascen at Week(rad): 0.9558906159 Argument of Perigee(rad): -3.114650245 Mean Anom(rad): -2.421945192 Af0(s): -0.0001552569092 Af1(s/s): 0 week: 143 ******** Week 143 almanac for PRN-5 ******** ID: 5 Health: 0 Eccentricity: 0.005894184113 Time of Applicability(s): 319488 Orbital Inclination(rad): 0.9594115059 Rate of Right Ascen(r/s): -8.057478483e-09 SQRT(A) (m 1/2): 5153.595703 Right Ascen at Week(rad): -0.1647351556 Argument of Perigee(rad): 1.015848817 Mean Anom(rad): -1.611353566 Af0(s): -5.275720215e-05 Af1(s/s): 0 week: 143 ******** Week 143 almanac for PRN-6 ******** ID: 6 Health: 0 Eccentricity: 0.00258731842 Time of Applicability(s): 319488 Orbital Inclination(rad): 0.9857588243 Rate of Right Ascen(r/s): -8.046049436e-09 SQRT(A) (m 1/2): 5153.597656 Right Ascen at Week(rad): -1.168631955 Argument of Perigee(rad): -1.009900147 Mean Anom(rad): 2.40732631 Af0(s): 0.0001281246338 Af1(s/s): 1.091394e-11 week: 143 ******** Week 143 almanac for PRN-7 ******** ID: 7 Health: 0 Eccentricity: 0.01540279388 Time of Applicability(s): 319488 Orbital Inclination(rad): 0.950627069 Rate of Right Ascen(r/s): -8.057478483e-09 SQRT(A) (m 1/2): 5153.640137 Right Ascen at Week(rad): 1.975558655 Argument of Perigee(rad): -2.297329476 Mean Anom(rad): 1.371935717 Af0(s): 0.000235900061 Af1(s/s): 3.637979e-12 week: 143 ******** Week 143 almanac for PRN-8 ******** ID: 8 Health: 0 Eccentricity: 0.007076740265 Time of Applicability(s): 319488 Orbital Inclination(rad): 0.9652657997 Rate of Right Ascen(r/s): -7.748894201e-09 SQRT(A) (m 1/2): 5153.659668 Right Ascen at Week(rad): -2.23979134 Argument of Perigee(rad): 0.07324046702 Mean Anom(rad): -1.944830728 Af0(s): -3.994473877e-05 Af1(s/s): 0 week: 143 ******** Week 143 almanac for PRN-9 ******** ID: 9 Health: 0 Eccentricity: 0.002352714539 Time of Applicability(s): 319488 Orbital Inclination(rad): 0.9538987624 Rate of Right Ascen(r/s): -7.737465153e-09 SQRT(A) (m 1/2): 5153.597168 Right Ascen at Week(rad): 0.9032570236 Argument of Perigee(rad): 1.857558232 Mean Anom(rad): -1.624131371 Af0(s): -0.000283381543 Af1(s/s): 0 week: 143 ******** Week 143 almanac for PRN-10 ******** ID: 10 Health: 0 Eccentricity: 0.00742149353 Time of Applicability(s): 319488 Orbital Inclination(rad): 0.9722645871 Rate of Right Ascen(r/s): -7.897471818e-09 SQRT(A) (m 1/2): 5153.634766 Right Ascen at Week(rad): -0.1276986575 Argument of Perigee(rad): -2.54358882 Mean Anom(rad): 0.03023582494 Af0(s): -0.0002261022949 Af1(s/s): -1.091394e-11 week: 143 ******** Week 143 almanac for PRN-11 ******** ID: 11 Health: 255 Eccentricity: 0.0003209114075 Time of Applicability(s): 319488 Orbital Inclination(rad): 0.9614847768 Rate of Right Ascen(r/s): -8.297488481e-09 SQRT(A) (m 1/2): 5153.702148 Right Ascen at Week(rad): -1.115620111 Argument of Perigee(rad): 2.786310945 Mean Anom(rad): -2.02300907 Af0(s): -1.205878906e-05 Af1(s/s): -3.637979e-11 week: 143 ******** Week 143 almanac for PRN-12 ******** ID: 12 Health: 0 Eccentricity: 0.008536338806 Time of Applicability(s): 319488 Orbital Inclination(rad): 0.9711680305 Rate of Right Ascen(r/s): -7.680319916e-09 SQRT(A) (m 1/2): 5153.575195 Right Ascen at Week(rad): 3.087776369 Argument of Perigee(rad): 1.233560987 Mean Anom(rad): 0.7044087718 Af0(s): -0.0001198342163 Af1(s/s): -7.275958e-12 week: 143 ******** Week 143 almanac for PRN-13 ******** ID: 13 Health: 0 Eccentricity: 0.005781650543 Time of Applicability(s): 319488 Orbital Inclination(rad): 0.9682798323 Rate of Right Ascen(r/s): -7.623174678e-09 SQRT(A) (m 1/2): 5153.629883 Right Ascen at Week(rad): 1.055466417 Argument of Perigee(rad): 0.9748032208 Mean Anom(rad): -2.573688699 Af0(s): 0.0001899259277 Af1(s/s): 7.275958e-12 week: 143 ******** Week 143 almanac for PRN-14 ******** ID: 14 Health: 0 Eccentricity: 0.00128698349 Time of Applicability(s): 319488 Orbital Inclination(rad): 0.9545758711 Rate of Right Ascen(r/s): -7.863184676e-09 SQRT(A) (m 1/2): 5153.589844 Right Ascen at Week(rad): 3.057143193 Argument of Perigee(rad): 3.056691163 Mean Anom(rad): 0.7263091938 Af0(s): -5.275720215e-05 Af1(s/s): -7.275958e-12 week: 143 ******** Week 143 almanac for PRN-15 ******** ID: 15 Health: 0 Eccentricity: 0.0139131546 Time of Applicability(s): 319488 Orbital Inclination(rad): 0.9298044782 Rate of Right Ascen(r/s): -7.977475151e-09 SQRT(A) (m 1/2): 5153.669434 Right Ascen at Week(rad): 0.7982774604 Argument of Perigee(rad): 1.068971515 Mean Anom(rad): -2.963513814 Af0(s): -7.386008301e-05 Af1(s/s): 3.637979e-12 week: 143 ******** Week 143 almanac for PRN-16 ******** ID: 16 Health: 0 Eccentricity: 0.01260089874 Time of Applicability(s): 319488 Orbital Inclination(rad): 0.9711440621 Rate of Right Ascen(r/s): -7.691748963e-09 SQRT(A) (m 1/2): 5153.533691 Right Ascen at Week(rad): 3.106408094 Argument of Perigee(rad): 0.6930578383 Mean Anom(rad): -1.153973001 Af0(s): -0.0003564879517 Af1(s/s): -7.275958e-12 week: 143 ******** Week 143 almanac for PRN-17 ******** ID: 17 Health: 0 Eccentricity: 0.01374387741 Time of Applicability(s): 319488 Orbital Inclination(rad): 0.9802760414 Rate of Right Ascen(r/s): -7.623174678e-09 SQRT(A) (m 1/2): 5153.695312 Right Ascen at Week(rad): -2.158498223 Argument of Perigee(rad): -1.51210808 Mean Anom(rad): -2.041811945 Af0(s): 0.0004401458008 Af1(s/s): 3.637979e-12 week: 143 ******** Week 143 almanac for PRN-18 ******** ID: 18 Health: 0 Eccentricity: 0.002094745636 Time of Applicability(s): 319488 Orbital Inclination(rad): 0.9701673477 Rate of Right Ascen(r/s): -8.194627053e-09 SQRT(A) (m 1/2): 5153.579102 Right Ascen at Week(rad): -1.151934934 Argument of Perigee(rad): 3.100526087 Mean Anom(rad): 2.224053806 Af0(s): 0.0002102751343 Af1(s/s): -7.275958e-12 week: 143 ******** Week 143 almanac for PRN-19 ******** ID: 19 Health: 0 Eccentricity: 0.008924484253 Time of Applicability(s): 319488 Orbital Inclination(rad): 0.9789637688 Rate of Right Ascen(r/s): -7.657461821e-09 SQRT(A) (m 1/2): 5153.636719 Right Ascen at Week(rad): -2.113567866 Argument of Perigee(rad): 1.99290994 Mean Anom(rad): 0.3517261404 Af0(s): 8.064315185e-05 Af1(s/s): 3.637979e-12 week: 143 ******** Week 143 almanac for PRN-20 ******** ID: 20 Health: 0 Eccentricity: 0.005348205566 Time of Applicability(s): 319488 Orbital Inclination(rad): 0.9415550108 Rate of Right Ascen(r/s): -8.286059433e-09 SQRT(A) (m 1/2): 5153.666504 Right Ascen at Week(rad): -0.2779639851 Argument of Perigee(rad): 3.092297418 Mean Anom(rad): 3.103636742 Af0(s): 0.0004084914795 Af1(s/s): 0 week: 143 ******** Week 143 almanac for PRN-21 ******** ID: 21 Health: 0 Eccentricity: 0.02447223663 Time of Applicability(s): 319488 Orbital Inclination(rad): 0.9589561053 Rate of Right Ascen(r/s): -8.171768958e-09 SQRT(A) (m 1/2): 5153.547363 Right Ascen at Week(rad): -1.250188725 Argument of Perigee(rad): -1.032013289 Mean Anom(rad): -1.890807715 Af0(s): 0.0001228489136 Af1(s/s): 0 week: 143 ******** Week 143 almanac for PRN-22 ******** ID: 22 Health: 255 Eccentricity: 0.006855010986 Time of Applicability(s): 319488 Orbital Inclination(rad): 0.9383012937 Rate of Right Ascen(r/s): -8.286059433e-09 SQRT(A) (m 1/2): 5153.586914 Right Ascen at Week(rad): -0.2321539109 Argument of Perigee(rad): -0.8629080109 Mean Anom(rad): 3.130731202 Af0(s): -0.0003353850708 Af1(s/s): 7.275958e-12 week: 143 ******** Week 143 almanac for PRN-23 ******** ID: 23 Health: 0 Eccentricity: 0.001961231232 Time of Applicability(s): 319488 Orbital Inclination(rad): 0.967303118 Rate of Right Ascen(r/s): -7.966046103e-09 SQRT(A) (m 1/2): 5153.651367 Right Ascen at Week(rad): -0.1523352279 Argument of Perigee(rad): 2.900572665 Mean Anom(rad): 1.386908882 Af0(s): 1.130511475e-05 Af1(s/s): -3.637979e-12 week: 143 ******** Week 143 almanac for PRN-24 ******** ID: 24 Health: 0 Eccentricity: 0.01225185394 Time of Applicability(s): 319488 Orbital Inclination(rad): 0.9340648702 Rate of Right Ascen(r/s): -8.240343243e-09 SQRT(A) (m 1/2): 5153.630371 Right Ascen at Week(rad): 1.893482069 Argument of Perigee(rad): 0.7985549701 Mean Anom(rad): 2.339051806 Af0(s): 0.0002185655518 Af1(s/s): 0 week: 143 ******** Week 143 almanac for PRN-25 ******** ID: 25 Health: 0 Eccentricity: 0.01031637192 Time of Applicability(s): 319488 Orbital Inclination(rad): 0.9585606259 Rate of Right Ascen(r/s): -7.817468486e-09 SQRT(A) (m 1/2): 5153.674316 Right Ascen at Week(rad): 3.011590405 Argument of Perigee(rad): 0.9681991639 Mean Anom(rad): 0.4801944099 Af0(s): 0.0002102751343 Af1(s/s): 7.275958e-12 week: 143 ******** Week 143 almanac for PRN-26 ******** ID: 26 Health: 0 Eccentricity: 0.006741523743 Time of Applicability(s): 319488 Orbital Inclination(rad): 0.9393858661 Rate of Right Ascen(r/s): -8.080336578e-09 SQRT(A) (m 1/2): 5153.619141 Right Ascen at Week(rad): 2.965387098 Argument of Perigee(rad): 0.3411942538 Mean Anom(rad): -0.1675233604 Af0(s): 0.000135661377 Af1(s/s): 3.637979e-12 week: 143 ******** Week 143 almanac for PRN-27 ******** ID: 27 Health: 0 Eccentricity: 0.009959697723 Time of Applicability(s): 319488 Orbital Inclination(rad): 0.9739303943 Rate of Right Ascen(r/s): -7.680319916e-09 SQRT(A) (m 1/2): 5153.608398 Right Ascen at Week(rad): -2.220698597 Argument of Perigee(rad): 0.6276449426 Mean Anom(rad): -2.025652341 Af0(s): 3.994473877e-05 Af1(s/s): 2.546585e-11 week: 143 ******** Week 143 almanac for PRN-29 ******** ID: 29 Health: 0 Eccentricity: 0.001753330231 Time of Applicability(s): 319488 Orbital Inclination(rad): 0.9822534385 Rate of Right Ascen(r/s): -7.634603726e-09 SQRT(A) (m 1/2): 5153.72998 Right Ascen at Week(rad): -2.145571738 Argument of Perigee(rad): 2.302618639 Mean Anom(rad): -1.923790174 Af0(s): -0.0003662857178 Af1(s/s): -3.637979e-12 week: 143 ******** Week 143 almanac for PRN-30 ******** ID: 30 Health: 0 Eccentricity: 0.005397319794 Time of Applicability(s): 319488 Orbital Inclination(rad): 0.9358085749 Rate of Right Ascen(r/s): -8.228914196e-09 SQRT(A) (m 1/2): 5153.526855 Right Ascen at Week(rad): 1.989329279 Argument of Perigee(rad): -2.75352997 Mean Anom(rad): 1.377366069 Af0(s): -0.0003986937134 Af1(s/s): -3.637979e-12 week: 143 ******** Week 143 almanac for PRN-31 ******** ID: 31 Health: 0 Eccentricity: 0.01046037674 Time of Applicability(s): 319488 Orbital Inclination(rad): 0.9548754767 Rate of Right Ascen(r/s): -8.034620388e-09 SQRT(A) (m 1/2): 5153.604004 Right Ascen at Week(rad): 1.993494171 Argument of Perigee(rad): 0.3625744855 Mean Anom(rad): 0.9203555165 Af0(s): -0.0001251099365 Af1(s/s): -3.637979e-12 week: 143 ******** Week 143 almanac for PRN-32 ******** ID: 32 Health: 0 Eccentricity: 0.005381584167 Time of Applicability(s): 319488 Orbital Inclination(rad): 0.9577636749 Rate of Right Ascen(r/s): -7.668890868e-09 SQRT(A) (m 1/2): 5153.713379 Right Ascen at Week(rad): 0.9142776419 Argument of Perigee(rad): -2.380409741 Mean Anom(rad): -1.332236848 Af0(s): -3.617636719e-05 Af1(s/s): -7.275958e-12 week: 143